SCP
0 0 0 0 0 0 0 0 0 0 0 0 0 0 0 0 0 0 0 0 0 0 0 0 0 0 0 0 0 0 0 0 0 0 0 0 0 0 0 0 0 0 0
0 0 0 0 0 0 0 0 0 0 0 0 0 0 0 0 0 0 0 0 0 0 0 0 0 0 0 0 0 0 0 0 0 0 0 0 0 0 0 0 0 0 0
0 0 0 0 0 0 0 0 0 0 0 0 0 0 0 0 0 0 0 0 0 0 0 0 0 0 0 0 0 0 0 0 0 0 0 0 0 0 0 0 0 0 0
0 0 0 0 0 0 0 0 0 0 0 0 0 0 0 0 0 0 0 0 0 0 0 0 0 0 0 0 0 0 0 0 0 0 0 0 0 0 0 0 0 0 0
0 0 0 0 0 0 0 0 0 0 0 0 0 0 0 0 0 0 0 0 0 0 0 0 0 0 0 0 0 0 0 0 0 0 0 0 0 0 0 0 0 0 0
0 0 0 0 0 0 0 0 0 0 0 0 0 0 0 0 0 0 0 0 0 0 0 0 0 0 0 0 0 0 0 0 0 0 0 0 0 0 0 0 0 0 0
0 0 0 0 0 0 0 0 0 0 0 0 0 0 0 0 0 0 0 0 0 0 0 0 0 0 0 0 0 0 0 0 0 0 0 0 0 0 0 0 0 0 0
0 0 0 0 0 0 0 0 0 0 0 0 0 0 0 0 0 0 0 0 0 0 0 0 0 0 0 0 0 0 0 0 0 0 0 0 0 0 0 0 0 0 0
0 0 0 0 0 0 0 0 0 0 0 0 0 0 0 0 0 0 0 0 0 0 0 0 0 0 0 0 0 0 0 0 0 0 0 0 0 0 0 0 0 0 0
0 0 0 0 0 0 0 0 0 0 0 0 0 0 0 0 0 0 0 0 0 0 0 0 0 0 0 0 0 0 0 0 0 0 0 0 0 0 0 0 0 0 0
0 0 0 0 0 0 0 0 0 0 0 0 0 0 0 0 0 0 0 0 0 0 0 0 0 0 0 0 0 0 0 0 0 0 0 0 0 0 0 0 0 0 0
0 0 0 0 0 0 0 0 0 0 0 0 0 0 0 0 0 0 0 0 0 0 0 0 0 0 0 0 0 0 0 0 0 0 0 0 0 0 0 0 0 0 0
0 0 0 0 0 0 0 0 0 0 0 0 0 0 0 0 0 0 0 0 0 0 0 0 0 0 0 0 0 0 0 0 0 0 0 0 0 0 0 0 0 0 0
0 0 0 0 0 0 0 0 0 0 0 0 0 0 0 0 0 0 0 0 0 0 0 0 0 0 0 0 0 0 0 0 0 0 0 0 0 0 0 0 0 0 0
0 0 0 0 0 0 0 0 0 0 0 0 0 0 0 0 0 0 0 0 0 0 0 0 0 0 0 0 0 0 0 0 0 0 0 0 0 0 0 0 0 0 0
0 0 0 0 0 0 0 0 0 0 0 0 0 0 0 0 0 0 0 0 0 0 0 0 0 0 0 0 0 0 0 0 0 0 0 0 0 0 0 0 0 0 0
0 0 0 0 0 0 0 0 0 0 0 0 0 0 0 0 0 0 0 0 0 0 0 0 0 0 0 0 0 0 0 0 0 0 0 0 0 0 0 0 0 0 0
0 0 0 0 0 0 0 0 0 0 0 0 0 0 0 0 0 0 0 0 0 0 0 0 0 0 0 0 0 0 0 0 0 0 0 0 0 0 0 0 0 0 0
0 0 0 0 0 0 0 0 0 0 0 0 0 0 0 0 0 0 0 0 0 0 0 0 0 0 0 0 0 0 0 0 0 0 0 0 0 0 0 0 0 0 0
0 0 0 0 0 0 0 0 0 0 0 0 0 0 0 0 0 0 0 0 0 0 0 0 0 0 0 0 0 0 0 0 0 0 0 0 0 0 0 0 0 0 0
0 0 0 0 0 0 0 0 0 0 0 0 0 0 0 0 0 0 0 0 0 0 0 0 0 0 0 0 0 0 0 0 0 0 0 0 0 0 0 0 0 0 0
0 0 0 0 0 0 0 0 0 0 0 0 0 0 0 0 0 0 0 0 0 0 0 0 0 0 0 0 0 0 0 0 0 0 0 0 0 0 0 0 0 0 0
0 0 0 0 0 0 0 0 0 0 0 0 0 0 0 0 0 0 0 0 0 0 0 0 0 0 0 0 0 0 0 0 -0 0 0 0 0 0 0 0 0 0 0
0 0 0 0 0 0 0 0 0 0 0 0 0 0 0 0 0 0 0 0 0 0 0 0 0 0 0 0 0 0 0 0 -0 0 0 0 0 0 0 0 -0 -0 0
0 0 0 0 0 0 0 0 0 0 0 0 0 0 0 0 0 0 0 0 0 0 0 0 0 0 0 0 0 0 0 0 -0 -0 0 0 0 0 0 0 0 0 0
0 0 0 0 0 0 0 0 0 0 0 0 0 0 0 0 0 0 0 0 0 0 0 0 0 0 0 0 0 0 0 0 0 0 0 0 0 0 0 0 0 0 0
Wind_Speed
7 7 6 6 5 5 6 7 7 6 7 7 6 6 6 6 6 5 5 5 5 4 3 4 3 3 2 1 2 2 2 2 2 1 1 2 3 4 4 3 3 2 3
7 6 6 6 6 6 6 6 6 6 7 7 7 6 6 6 6 6 6 5 6 5 4 4 3 3 2 2 2 2 1 2 2 2 1 2 2 3 4 4 4 4 3
6 6 6 6 6 6 6 5 6 6 6 6 6 6 6 6 6 5 5 5 5 4 4 4 3 3 3 2 2 1 1 1 1 1 1 1 2 3 3 3 4 4 4
6 6 6 6 6 6 5 5 6 6 6 6 5 5 5 5 5 5 5 5 5 4 4 3 3 3 3 3 2 2 2 2 2 1 1 1 2 2 2 3 4 4 4
7 6 6 6 6 6 5 5 6 6 6 6 5 5 4 4 4 6 6 6 6 6 5 5 5 6 6 4 3 2 3 2 2 2 1 1 2 3 3 3 3 4 3
7 7 6 6 6 6 6 6 6 6 6 6 6 5 4 3 5 7 7 6 6 6 6 5 6 7 9 10 10 9 6 4 2 2 2 2 3 3 3 3 3 3 3
6 6 6 7 7 6 7 7 7 6 7 7 6 6 6 5 7 9 10 8 7 6 6 5 5 6 7 8 12 14 13 13 8 4 4 3 2 3 3 3 3 3 3
6 6 6 7 7 7 7 7 7 6 7 7 7 7 7 7 10 11 13 10 9 8 7 6 7 6 6 7 8 10 9 9 9 7 5 4 4 3 3 2 3 3 3
6 6 6 7 8 8 8 7 7 8 8 7 7 8 9 8 11 12 12 9 9 9 8 8 8 8 9 9 9 9 8 7 9 12 11 10 11 11 7 4 4 4 3
7 7 7 7 8 9 9 8 7 8 9 9 9 8 9 8 10 12 12 8 9 8 8 8 11 10 11 10 8 8 7 5 5 6 8 9 8 9 11 6 4 3 3
7 7 8 8 8 9 9 9 10 10 11 11 11 9 9 9 10 11 10 7 8 8 7 6 7 12 12 11 9 7 6 5 5 5 5 5 5 6 6 6 4 3 3
8 9 9 9 8 9 11 10 10 11 12 11 10 9 7 8 9 11 13 12 9 9 7 6 7 11 12 11 8 8 8 6 4 4 5 5 5 5 6 6 6 4 3
10 10 10 10 10 9 10 11 9 8 8 8 8 8 7 6 8 14 14 14 13 9 7 10 10 11 10 9 11 10 7 5 4 5 5 4 4 5 5 5 5 6 5
11 11 10 11 11 10 8 7 7 7 8 8 8 8 7 6 6 6 7 8 11 10 8 10 12 12 9 8 8 7 6 5 4 4 3 3 4 4 5 5 5 6 5
12 11 11 11 11 11 10 9 8 7 6 8 7 7 8 7 5 7 6 6 5 6 6 5 5 5 6 5 5 5 4 4 4 4 4 4 5 5 5 5 4 5 5
12 11 9 9 9 10 11 12 17 14 16 15 12 9 8 9 10 12 11 10 9 9 7 6 5 5 4 4 4 4 4 4 4 4 4 4 5 5 6 5 5 5 6
12 11 9 9 9 9 9 10 10 12 16 15 13 13 12 12 12 13 12 12 10 9 7 5 4 4 3 3 3 3 3 3 3 4 4 5 5 5 6 6 6 6 7
12 12 11 8 8 8 8 8 8 9 8 7 9 12 12 12 12 11 11 9 7 6 5 4 4 3 2 2 2 2 2 3 3 4 5 5 5 6 6 6 6 7 7
11 9 9 9 8 8 8 8 8 9 9 7 6 7 9 11 11 9 7 6 5 4 4 3 3 2 2 2 2 2 2 3 4 4 5 5 5 5 6 6 6 8 7
10 15 12 9 8 8 8 8 8 8 7 6 6 4 3 4 5 4 4 4 4 3 3 3 2 2 1 1 1 2 2 3 4 4 5 5 5 5 6 7 7 7 7
8 11 14 10 8 7 7 7 7 7 6 5 4 3 5 5 4 4 3 3 3 2 2 2 1 1 1 1 1 2 3 4 4 4 5 5 5 5 5 6 7 7 7
7 7 7 8 7 7 7 6 6 6 6 6 4 4 6 5 4 3 3 2 2 1 1 1 1 1 1 1 2 2 3 4 4 5 5 6 6 6 6 6 7 7 8
8 9 8 7 7 8 7 6 6 6 5 5 5 4 4 3 3 2 2 1 1 1 1 1 1 0 1 1 2 2 3 4 4 5 6 6 6 6 6 7 9 9 9
8 9 8 7 6 6 6 6 5 5 5 5 4 4 3 3 2 2 1 1 1 1 1 1 0 0 2 2 2 2 3 4 5 5 6 6 7 7 7 7 8 10 9
7 7 7 6 6 6 6 6 5 5 5 4 4 3 3 2 2 2 1 1 1 1 1 1 1 1 2 4 4 4 5 5 5 5 5 5 7 7 8 9 8 9 9
7 7 6 6 6 6 6 5 5 5 4 4 3 3 3 2 2 2 2 1 1 1 1 2 2 3 4 4 5 6 5 6 6 6 5 5 6 7 8 7 10 9 9
Wind_Direction
175 176 176 177 175 170 175 181 176 171 166 167 168 165 166 165 162 161 161 159 160 159 156 156 156 145 141 146 138 142 154 159 201 265 287 325 351 5 10 11 8 1 349
174 172 175 174 170 171 180 179 169 167 169 169 165 165 171 170 168 169 167 165 165 166 164 156 161 147 137 135 137 150 165 180 194 235 319 346 2 6 5 9 13 14 6
169 170 171 170 169 172 175 166 159 158 160 161 161 165 168 168 167 168 163 159 160 161 156 154 156 144 137 131 128 132 136 142 161 177 339 356 357 7 360 5 13 6 6
162 164 167 169 165 162 157 152 151 150 150 152 154 155 158 159 162 160 152 146 140 133 128 128 129 135 138 133 118 112 109 100 92 93 48 4 351 352 5 358 356 360 356
154 155 158 151 141 135 134 136 135 139 145 142 138 134 138 146 158 154 147 141 130 116 101 96 96 97 96 97 98 97 99 95 90 81 59 29 13 8 5 349 347 340 351
151 153 146 134 132 133 134 130 126 124 121 118 120 126 126 135 137 141 134 126 123 117 107 92 83 79 81 79 78 74 74 82 88 83 63 46 22 4 352 354 351 351 340
150 147 145 143 141 141 137 128 128 126 117 110 110 109 105 101 115 120 120 115 109 104 100 94 86 78 79 84 77 70 62 59 64 88 76 50 24 360 351 355 356 345 318
146 144 142 140 139 133 128 126 124 115 112 109 105 104 101 94 100 106 108 102 94 87 86 91 93 84 82 92 88 78 69 57 57 64 71 53 39 18 12 357 333 322 301
149 148 148 146 141 134 129 124 120 114 106 100 98 101 99 91 95 104 104 100 94 84 77 77 85 82 77 88 91 85 73 59 59 61 60 54 46 41 35 28 15 3 345
155 152 143 140 137 132 127 119 109 106 104 99 90 86 90 90 92 101 105 106 101 94 81 73 73 81 79 80 85 87 78 55 52 51 45 39 37 35 34 33 16 3 345
139 130 125 124 123 121 118 114 112 108 103 96 89 79 76 78 78 84 94 103 109 102 91 80 74 79 80 79 80 81 86 84 69 61 50 37 30 27 22 17 11 0 341
120 118 117 114 114 117 115 110 110 111 107 102 96 84 71 68 73 80 82 87 97 100 96 90 87 83 79 77 76 79 78 73 67 57 46 32 21 13 3 355 352 344 313
112 109 108 105 102 108 113 114 109 107 107 106 102 97 85 74 72 75 81 87 91 93 94 96 91 86 79 72 68 68 65 63 60 51 38 23 4 348 345 342 344 341 328
104 102 101 101 96 90 88 94 103 109 112 109 106 104 96 85 81 82 85 88 88 91 91 87 81 73 71 65 58 52 51 54 57 47 25 4 353 352 355 351 342 341 333
98 97 95 93 95 88 79 70 77 68 100 114 111 111 110 103 93 102 107 102 104 109 106 89 78 72 66 59 54 46 42 42 41 29 17 4 355 352 347 344 338 335 333
102 98 96 98 97 97 96 80 62 72 75 80 91 101 92 102 107 99 97 99 102 109 97 88 82 77 71 62 55 46 37 31 23 14 7 358 348 343 337 336 335 332 329
104 104 102 103 105 107 106 107 99 73 65 68 79 90 101 107 105 102 98 91 86 92 88 87 84 78 70 61 52 42 27 15 7 3 355 347 339 334 332 331 332 330 326
99 102 104 103 104 104 104 105 108 110 99 75 67 83 96 100 102 105 106 93 75 70 86 91 88 80 72 60 47 36 19 5 359 352 346 342 338 331 328 328 327 326 322
102 103 102 101 100 101 102 103 104 104 105 104 97 82 85 90 83 80 86 92 100 93 90 90 88 84 72 57 37 18 3 352 347 342 341 339 335 328 324 322 320 319 318
101 108 107 105 104 104 106 107 107 108 110 109 107 107 102 94 91 80 77 94 101 101 99 97 88 81 68 41 16 0 350 344 343 340 335 332 329 323 319 319 319 318 316
104 109 110 107 107 110 112 113 115 116 116 113 108 113 122 113 112 108 103 100 105 111 112 105 91 72 46 17 360 348 341 336 335 331 327 326 324 321 317 313 312 312 313
105 107 109 110 111 112 114 117 118 119 122 119 111 102 104 105 109 108 103 98 99 108 122 126 114 73 18 355 342 332 328 327 329 328 324 321 319 317 316 315 317 319 318
108 109 106 105 108 112 111 114 118 120 121 123 123 120 116 114 115 114 112 110 111 108 106 118 123 68 8 345 328 317 316 320 319 316 315 315 314 314 313 314 316 318 319
112 115 116 116 116 119 121 121 121 124 126 126 127 129 132 131 129 127 124 116 114 114 123 137 152 311 320 323 317 312 309 309 309 305 306 304 307 308 310 311 312 314 315
114 117 121 124 126 127 127 127 128 131 133 136 140 141 142 141 142 144 140 138 144 157 199 226 247 277 291 301 309 312 312 307 306 312 306 301 305 309 312 312 313 316 318
114 118 120 124 127 132 134 137 140 142 142 144 147 153 159 164 169 173 172 179 197 220 239 250 256 267 283 295 305 310 306 306 309 312 307 304 309 313 319 314 316 317 318